When you browse on this site, cookies collect data to enhance your experience and personalize the content and advertising you see.
Visit our Privacy Policy to learn more. By continuing to use the site, you agree to this use of cookies and data.
  • In Hungary
  • List of Countries
  • For 7 days
  • Water Temperature
  • Weather Map
  • News
  • Weather Widgets
  • user-avatar
    Login

    Hourly Weather Chernats'ke

    Today, 18 September, Wednesday

    Time Temperature Precipitation Wind Pressure Humidity
    00:00 +9°C° 0.4 mm 3 mps 737 mmHg 67%
    01:00 +9°C° 0.4 mm 3 mps 736 mmHg 75%
    02:00 +9°C° 0 mm 3 mps 736 mmHg 80%
    03:00 +8°C° 0.4 mm 3 mps 735 mmHg 84%
    04:00 +8°C° 0.4 mm 3 mps 735 mmHg 88%
    05:00 +7°C° 0.4 mm 3 mps 734 mmHg 92%
    06:00 +7°C° 0.1 mm 4 mps 734 mmHg 87%
    07:00 +8°C° 0.1 mm 4 mps 734 mmHg 82%
    08:00 +9°C° 0 mm 5 mps 734 mmHg 80%
    09:00 +8°C° 0.7 mm 6 mps 734 mmHg 81%
    10:00 +8°C° 0.7 mm 7 mps 734 mmHg 83%
    11:00 +6°C° 0.7 mm 8 mps 734 mmHg 84%
    12:00 +6°C° 0.5 mm 8 mps 734 mmHg 85%
    13:00 +5°C° 0.5 mm 8 mps 734 mmHg 86%
    14:00 +5°C° 0.5 mm 8 mps 734 mmHg 87%
    15:00 +5°C° 0.4 mm 8 mps 735 mmHg 85%
    16:00 +6°C° 0.4 mm 8 mps 735 mmHg 83%
    17:00 +6°C° 0.4 mm 8 mps 736 mmHg 81%
    18:00 +6°C° 0.1 mm 8 mps 737 mmHg 82%
    19:00 +6°C° 0.1 mm 7 mps 737 mmHg 82%
    20:00 +6°C° 0.1 mm 7 mps 738 mmHg 83%
    21:00 +5°C° 0 mm 7 mps 738 mmHg 84%
    22:00 +5°C° 0 mm 6 mps 739 mmHg 86%
    23:00 +5°C° 0 mm 6 mps 740 mmHg 88%

    Tomorrow, 19 September, Thursday

    Time Temperature Precipitation Wind Pressure Humidity
    00:00 +5°C° 0 mm 6 mps 740 mmHg 89%
    01:00 +6°C° 0 mm 5 mps 741 mmHg 90%
    02:00 +6°C° 0 mm 5 mps 742 mmHg 90%
    03:00 +5°C° 0 mm 5 mps 742 mmHg 92%
    04:00 +4°C° 0 mm 4 mps 742 mmHg 94%
    05:00 +4°C° 0 mm 4 mps 742 mmHg 96%
    06:00 +5°C° 0 mm 4 mps 743 mmHg 94%
    07:00 +5°C° 0 mm 5 mps 743 mmHg 92%
    08:00 +6°C° 0 mm 5 mps 744 mmHg 90%
    09:00 +7°C° 0 mm 5 mps 744 mmHg 87%
    10:00 +7°C° 0 mm 5 mps 745 mmHg 83%
    11:00 +8°C° 0 mm 5 mps 745 mmHg 80%
    12:00 +9°C° 0 mm 5 mps 745 mmHg 78%
    13:00 +10°C° 0 mm 4 mps 745 mmHg 75%
    14:00 +10°C° 0 mm 4 mps 745 mmHg 73%
    15:00 +10°C° 0.1 mm 4 mps 746 mmHg 73%
    16:00 +10°C° 0.1 mm 3 mps 746 mmHg 74%
    17:00 +10°C° 0.1 mm 3 mps 746 mmHg 75%
    18:00 +9°C° 0.1 mm 3 mps 746 mmHg 81%
    19:00 +8°C° 0.1 mm 3 mps 746 mmHg 87%
    20:00 +5°C° 0.1 mm 3 mps 746 mmHg 93%
    21:00 +5°C° 0 mm 3 mps 746 mmHg 94%
    22:00 +4°C° 0 mm 3 mps 746 mmHg 95%
    23:00 +4°C° 0 mm 3 mps 746 mmHg 96%

    Day after tomorrow, 20 September, Friday

    Time Temperature Precipitation Wind Pressure Humidity
    00:00 +5°C° 0 mm 2 mps 746 mmHg 96%
    01:00 +4°C° 0 mm 2 mps 746 mmHg 96%
    02:00 +4°C° 0 mm 2 mps 746 mmHg 96%
    03:00 +4°C° 0 mm 2 mps 746 mmHg 96%
    04:00 +3°C° 0 mm 2 mps 746 mmHg 96%
    05:00 +3°C° 0 mm 2 mps 746 mmHg 95%
    06:00 +5°C° 0 mm 2 mps 746 mmHg 91%
    07:00 +6°C° 0 mm 2 mps 746 mmHg 86%
    08:00 +7°C° 0 mm 2 mps 746 mmHg 81%
    09:00 +9°C° 0 mm 3 mps 746 mmHg 74%
    10:00 +10°C° 0 mm 3 mps 746 mmHg 68%
    11:00 +12°C° 0 mm 4 mps 746 mmHg 61%
    12:00 +12°C° 0.6 mm 4 mps 746 mmHg 62%
    13:00 +12°C° 0.6 mm 5 mps 745 mmHg 64%
    14:00 +11°C° 0.6 mm 6 mps 745 mmHg 66%
    15:00 +10°C° 0.2 mm 5 mps 745 mmHg 70%
    16:00 +9°C° 0.2 mm 5 mps 745 mmHg 73%
    17:00 +8°C° 0.2 mm 4 mps 745 mmHg 77%
    18:00 +6°C° 0 mm 4 mps 746 mmHg 82%
    19:00 +5°C° 0 mm 4 mps 746 mmHg 86%
    20:00 +3°C° 0 mm 3 mps 747 mmHg 90%
    21:00 +3°C° 0 mm 3 mps 747 mmHg 91%
    22:00 +2°C° 0 mm 3 mps 747 mmHg 93%
    23:00 +2°C° 0 mm 3 mps 747 mmHg 94%

    21 September, Saturday

    Time Temperature Precipitation Wind Pressure Humidity
    00:00 +2°C° 0 mm 3 mps 747 mmHg 94%
    01:00 +1°C° 0 mm 4 mps 747 mmHg 95%
    02:00 0°C° 0 mm 4 mps 748 mmHg 95%
    03:00 0°C° 0 mm 4 mps 748 mmHg 95%
    04:00 0°C° 0 mm 4 mps 748 mmHg 95%
    05:00 -1°C° 0 mm 4 mps 748 mmHg 95%
    06:00 0°C° 0 mm 4 mps 749 mmHg 90%
    07:00 +1°C° 0 mm 4 mps 749 mmHg 84%
    08:00 +4°C° 0 mm 4 mps 749 mmHg 79%
    09:00 +5°C° 0 mm 4 mps 749 mmHg 68%
    10:00 +7°C° 0 mm 5 mps 749 mmHg 58%
    11:00 +9°C° 0 mm 5 mps 749 mmHg 47%
    12:00 +10°C° 0 mm 5 mps 749 mmHg 47%
    13:00 +10°C° 0 mm 5 mps 748 mmHg 46%
    14:00 +12°C° 0 mm 5 mps 748 mmHg 45%
    15:00 +10°C° 0 mm 5 mps 747 mmHg 53%
    16:00 +9°C° 0 mm 5 mps 747 mmHg 60%
    17:00 +8°C° 0 mm 5 mps 747 mmHg 68%
    18:00 +8°C° 0.1 mm 5 mps 746 mmHg 76%
    19:00 +8°C° 0.1 mm 5 mps 746 mmHg 83%
    20:00 +7°C° 0.1 mm 6 mps 746 mmHg 90%
    21:00 +8°C° 0.2 mm 6 mps 745 mmHg 91%
    22:00 +8°C° 0.2 mm 6 mps 745 mmHg 91%
    23:00 +9°C° 0.2 mm 6 mps 744 mmHg 92%

    22 September, Sunday

    Time Temperature Precipitation Wind Pressure Humidity
    00:00 +9°C° 0.1 mm 7 mps 744 mmHg 91%
    01:00 +9°C° 0.1 mm 7 mps 744 mmHg 90%
    02:00 +10°C° 0.1 mm 7 mps 743 mmHg 89%
    03:00 +9°C° 0 mm 7 mps 743 mmHg 89%
    04:00 +9°C° 0 mm 7 mps 743 mmHg 89%
    05:00 +9°C° 0 mm 7 mps 743 mmHg 89%
    06:00 +10°C° 0 mm 8 mps 742 mmHg 87%
    07:00 +10°C° 0 mm 8 mps 742 mmHg 85%
    08:00 +10°C° 0 mm 9 mps 742 mmHg 83%
    09:00 +11°C° 0 mm 9 mps 742 mmHg 79%
    10:00 +12°C° 0 mm 9 mps 743 mmHg 75%
    11:00 +12°C° 0 mm 10 mps 743 mmHg 71%
    12:00 +12°C° 0.1 mm 10 mps 743 mmHg 61%
    13:00 +12°C° 0.1 mm 10 mps 744 mmHg 51%
    14:00 +12°C° 0.1 mm 10 mps 744 mmHg 41%
    15:00 +11°C° 0 mm 8 mps 745 mmHg 44%
    16:00 +10°C° 0 mm 7 mps 745 mmHg 47%
    17:00 +9°C° 0 mm 6 mps 746 mmHg 50%
    18:00 +7°C° 0 mm 5 mps 746 mmHg 54%
    19:00 +6°C° 0 mm 4 mps 747 mmHg 59%
    20:00 +4°C° 0 mm 3 mps 748 mmHg 63%
    21:00 +4°C° 0 mm 3 mps 748 mmHg 65%
    22:00 +4°C° 0 mm 2 mps 748 mmHg 67%
    23:00 +3°C° 0 mm 2 mps 749 mmHg 69%

    23 September, Monday

    Time Temperature Precipitation Wind Pressure Humidity
    00:00 +3°C° 0 mm 2 mps 749 mmHg 71%
    01:00 +3°C° 0 mm 1 mps 749 mmHg 72%
    02:00 +3°C° 0 mm 1 mps 749 mmHg 74%
    03:00 +3°C° 0 mm 1 mps 749 mmHg 74%
    04:00 +2°C° 0 mm 0 mps 749 mmHg 75%
    05:00 +1°C° 0 mm 0 mps 749 mmHg 76%
    06:00 +4°C° 0 mm 1 mps 749 mmHg 70%
    07:00 +6°C° 0 mm 1 mps 749 mmHg 64%
    08:00 +6°C° 0 mm 2 mps 749 mmHg 58%
    09:00 +8°C° 0 mm 2 mps 749 mmHg 52%
    10:00 +9°C° 0 mm 3 mps 749 mmHg 46%
    11:00 +11°C° 0 mm 3 mps 749 mmHg 40%
    12:00 +12°C° 0 mm 4 mps 748 mmHg 38%
    13:00 +13°C° 0 mm 4 mps 747 mmHg 37%
    14:00 +13°C° 0 mm 5 mps 746 mmHg 36%
    15:00 +13°C° 0 mm 4 mps 745 mmHg 39%
    16:00 +12°C° 0 mm 4 mps 745 mmHg 43%
    17:00 +11°C° 0 mm 4 mps 744 mmHg 46%
    18:00 +12°C° 0 mm 4 mps 743 mmHg 45%
    19:00 +12°C° 0 mm 5 mps 743 mmHg 44%
    20:00 +11°C° 0 mm 6 mps 742 mmHg 43%
    21:00 +11°C° 0 mm 6 mps 741 mmHg 48%
    22:00 +11°C° 0 mm 6 mps 741 mmHg 53%
    23:00 +11°C° 0 mm 6 mps 740 mmHg 58%
    Show more